EHI
0 0 0 0 0 0 0 0 0 0 0 0 0 0 0 0 0 0 0 0 0 0 0 0 0 0 0 0 0 0 0 0 0 0 0 0 0 0 0 0 0 0 0
0 0 0 0 0 0 0 0 0 0 0 0 0 0 0 0 0 0 0 0 0 0 0 0 0 0 0 0 0 0 0 0 0 0 0 0 0 0 0 0 0 0 0
0 0 0 0 0 0 0 0 0 0 0 0 0 0 0 0 0 0 0 0 0 0 0 0 0 0 0 0 0 0 0 0 0 0 0 0 0 0 0 0 0 0 0
0 0 0 0 0 0 0 0 0 0 0 0 0 0 0 0 0 0 0 0 0 0 0 0 0 0 0 0 0 0 0 0 0 0 0 0 0 0 0 0 0 0 0
0 0 0 0 0 0 0 0 0 0 0 0 0 0 0 0 0 0 0 0 0 0 0 0 0 0 0 0 0 0 0 0 0 0 0 0 0 0 0 0 0 0 0
0 0 0 0 0 0 0 0 0 0 0 0 0 0 0 0 0 0 0 0 0 0 0 0 0 0 0 0 0 0 0 0 0 0 0 0 0 0 0 0 0 0 0
0 0 0 0 0 0 0 0 0 0 0 0 0 0 0 0 0 0 0 0 0 0 0 0 0 0 0 0 0 0 0 0 0 0 0 0 0 0 0 0 0 0 0
0 0 0 0 0 0 0 0 0 0 0 0 0 0 0 0 0 0 0 0 0 0 0 0 0 0 0 0 0 0 0 0 0 0 0 0 0 0 0 0 0 0 0
0 0 0 0 0 0 0 0 0 0 0 0 0 0 0 0 0 0 0 0 0 0 0 0 0 0 0 0 0 0 0 0 0 0 0 0 0 0 0 0 0 0 0
0 0 0 0 0 0 0 0 0 0 0 0 0 0 0 0 0 0 0 0 0 0 0 0 0 0 0 0 0 0 0 0 0 0 0 0 0 0 0 0 0 0 0
0 0 0 0 0 0 0 0 0 0 0 0 0 0 0 0 0 0 0 0 0 0 0 0 0 0 0 0 0 0 0 0 0 0 0 0 0 0 0 0 0 0 0
0 0 0 0 0 0 0 0 0 0 0 0 0 0 0 0 0 0 0 0 0 0 0 0 0 0 0 0 0 0 0 0 0 0 0 0 0 0 0 0 0 0 0
0 0 0 0 0 0 0 0 0 0 0 0 0 0 0 0 0 0 0 0 0 0 0 0 0 0 0 0 0 0 0 0 0 0 0 0 0 0 0 0 0 0 0
0 0 0 0 0 0 0 0 0 0 0 0 0 0 0 0 0 0 0 0 0 0 0 0 0 0 0 0 0 0 0 0 0 0 0 0 0 0 0 0 0 0 0
0 0 0 0 0 0 0 0 0 0 0 0 0 0 0 0 0 0 0 0 0 0 0 0 0 0 0 0 0 0 0 0 0 0 0 0 0 0 0 0 0 0 0
0 0 0 0 0 0 0 0 0 0 0 0 0 0 0 0 0 0 0 0 0 0 0 0 0 0 0 0 0 0 0 0 0 0 0 0 0 0 0 0 0 0 0
0 0 0 0 0 0 0 0 0 0 0 0 0 0 0 0 0 0 0 0 0 0 0 0 0 0 0 0 0 0 0 0 0 0 0 0 0 0 0 0 0 0 0
0 0 0 0 0 0 0 0 0 0 0 0 0 0 0 0 0 0 0 0 0 0 0 0 0 0 0 0 0 0 0 0 0 0 0 0 0 0 0 0 0 0 0
0 0 0 0 0 0 0 0 0 0 0 0 0 0 0 0 0 0 0 0 0 0 0 0 0 0 0 0 0 0 0 0 0 0 0 0 0 0 0 0 0 0 0
0 0 0 0 0 0 0 0 0 0 0 0 0 0 0 0 0 0 0 0 0 0 0 0 0 0 0 0 0 0 0 0 0 0 0 0 0 0 0 0 0 0 0
0 0 0 0 0 0 0 0 0 0 0 0 0 0 0 0 0 0 0 0 0 0 0 0 0 0 0 0 0 0 0 0 0 0 0 0 0 0 0 0 0 0 0
0 0 0 0 0 0 0 0 0 0 0 0 0 0 0 0 0 0 0 0 0 0 0 0 0 0 0 0 0 0 0 0 0 0 0 0 0 0 0 0 0 0 0
0 0 0 0 0 0 0 0 0 0 0 0 0 0 0 0 0 0 0 0 0 0 0 0 0 0 0 0 0 0 0 0 0 0 0 0 0 0 0 0 0 0 0
0 0 0 0 0 0 0 0 0 0 0 0 0 0 0 0 0 0 0 0 0 0 0 0 0 0 0 0 0 0 0 0 0 0 0 0 0 0 0 0 0 0 0
0 0 0 0 0 0 0 0 0 0 0 0 0 0 0 0 0 0 0 0 0 0 0 0 0 0 0 0 0 0 0 0 0 0 0 0 0 0 0 0 0 0 0
0 0 0 0 0 0 0 0 0 0 0 0 0 0 0 0 0 0 0 0 0 0 0 0 0 0 0 0 0 0 0 0 0 0 0 0 0 0 0 0 0 0 0
Wind_Speed
9 8 8 8 7 7 7 7 6 5 4 3 3 3 3 3 2 2 3 3 3 3 4 4 4 4 4 5 6 5 6 5 5 5 6 6 6 7 6 6 6 7 7
8 8 8 8 8 8 7 7 6 5 5 4 3 3 3 3 3 3 3 3 4 4 4 5 4 5 5 6 6 5 4 4 4 4 5 5 5 4 5 6 6 7 7
10 9 9 9 8 8 8 6 6 6 5 4 3 2 2 3 3 3 3 4 4 4 5 5 5 5 6 5 6 6 6 5 5 4 4 5 5 6 5 6 6 6 6
10 10 10 9 9 8 7 6 6 5 5 5 4 5 4 4 4 4 3 4 4 5 5 5 6 6 5 6 6 6 6 6 5 5 5 6 6 6 6 5 5 7 8
9 10 10 9 8 7 6 6 6 5 5 5 5 5 5 5 4 4 5 5 4 5 5 6 5 6 5 6 7 6 6 6 6 6 6 7 7 9 8 9 8 7 7
8 8 9 8 7 6 5 5 6 5 5 5 6 6 7 6 6 6 5 5 4 4 6 6 6 6 6 6 7 7 8 7 8 7 6 7 6 7 8 10 10 9 8
7 8 8 8 7 7 6 6 6 6 6 6 6 7 7 7 7 6 6 6 5 5 6 6 6 6 6 7 7 7 8 8 9 8 7 7 8 7 8 9 10 11 9
5 6 8 8 7 7 7 7 7 6 6 6 6 6 7 5 5 6 6 6 5 6 6 7 7 7 7 7 7 7 8 8 9 9 9 7 7 8 8 8 9 10 9
5 6 6 7 7 7 7 7 7 7 6 6 6 6 6 6 6 7 7 6 6 6 7 7 7 7 8 8 8 7 8 8 9 9 10 8 8 8 8 8 8 9 10
4 5 5 6 6 6 6 7 7 7 6 6 6 5 6 6 6 6 7 7 7 7 7 7 8 8 8 8 8 8 8 9 9 8 9 9 8 8 7 8 8 8 9
3 4 4 5 5 5 5 6 6 6 6 6 6 6 6 5 6 6 6 6 6 7 7 7 7 8 8 8 8 8 9 10 10 9 10 10 10 8 7 8 8 9 9
2 3 3 4 4 4 5 5 5 5 5 5 5 5 5 5 6 6 6 6 6 6 7 7 7 8 8 8 8 9 9 10 10 10 11 11 9 11 9 8 9 9 9
1 2 2 3 3 4 4 4 4 4 4 4 5 4 4 5 5 6 6 6 6 6 7 7 7 8 8 8 8 9 9 10 11 11 11 11 11 11 9 10 9 8 8
1 1 2 2 3 3 3 3 3 3 3 4 4 4 4 5 5 5 5 5 6 6 6 7 7 7 8 8 8 9 9 10 10 11 11 11 11 11 11 9 10 9 9
1 1 2 2 3 3 3 3 3 3 3 3 4 4 4 4 4 5 5 5 6 6 6 7 7 7 7 7 8 8 9 9 10 10 10 10 11 13 12 9 9 9 8
2 2 3 3 3 3 3 2 2 2 3 3 3 3 3 4 4 4 5 5 6 6 6 6 7 8 6 9 11 10 9 9 10 10 10 10 11 12 15 16 15 13 11
3 4 4 3 3 2 2 2 2 2 2 2 3 3 3 4 4 4 5 5 6 6 6 7 7 8 9 10 12 12 10 9 9 9 9 8 9 11 10 12 14 14 14
4 4 4 3 3 2 1 1 1 1 2 2 3 3 3 4 4 4 5 5 5 6 6 7 7 8 9 11 12 12 10 9 9 9 10 10 10 9 10 10 10 10 10
4 4 3 3 2 1 1 0 1 1 2 2 3 3 3 4 4 5 5 5 5 6 6 7 7 8 9 10 12 12 8 7 9 9 9 10 10 11 12 10 10 9 8
3 3 2 2 1 1 0 0 1 2 2 3 3 3 3 4 5 5 5 5 5 6 6 7 7 8 8 10 11 11 6 7 7 7 8 9 10 11 12 9 8 9 8
3 3 2 1 1 1 0 1 1 2 3 3 3 3 3 4 4 4 4 5 5 5 6 7 7 7 8 9 10 10 6 6 7 7 6 6 10 11 11 10 8 8 8
3 3 2 2 2 1 0 1 2 3 2 2 2 3 3 3 3 3 4 4 4 5 6 6 7 6 6 7 9 10 9 9 7 7 6 6 9 10 10 8 6 7 6
3 3 3 3 3 2 1 2 3 3 2 2 3 3 3 3 3 3 4 4 4 4 5 5 6 6 6 6 9 9 10 10 7 6 8 9 10 9 7 5 6 5 4
3 3 3 3 3 3 2 2 3 3 2 2 3 3 3 3 3 3 3 3 4 4 5 5 6 6 6 6 6 6 6 7 6 6 6 8 7 6 6 5 4 3 3
3 3 2 3 3 3 3 3 3 3 3 3 3 3 3 3 3 3 3 4 4 4 5 5 6 6 7 7 10 9 6 6 6 6 5 4 4 4 4 3 3 3 2
3 3 3 3 3 4 4 4 4 3 3 3 3 2 2 3 3 3 3 3 4 7 8 8 8 7 8 11 11 11 11 11 10 6 3 4 4 4 3 3 3 3 2
Wind_Direction
210 203 201 197 196 197 198 197 201 200 201 207 218 228 239 249 253 260 270 271 273 275 276 282 288 286 285 288 293 291 290 292 291 285 284 277 264 259 260 260 265 266 264
205 199 198 195 197 198 201 202 205 204 208 218 229 240 249 259 263 264 264 267 268 271 271 275 280 283 284 284 287 287 282 286 285 283 288 284 270 249 259 259 260 264 264
210 200 197 197 197 199 201 203 205 208 214 220 224 231 242 249 248 255 259 262 267 266 265 270 275 277 278 278 281 277 274 280 283 273 273 280 281 303 265 260 261 264 268
214 208 200 198 199 200 199 202 202 208 214 216 222 229 241 252 261 265 265 267 269 270 266 267 269 271 272 274 274 271 268 267 270 271 260 264 280 284 286 267 265 274 272
212 208 202 199 198 194 194 197 199 206 211 219 226 236 245 254 260 262 263 265 266 265 266 267 267 267 268 271 271 269 265 261 261 265 267 265 267 266 272 279 279 277 272
208 206 198 195 192 187 190 198 201 211 216 223 231 238 247 252 257 260 265 268 269 268 268 267 264 265 267 269 268 265 261 259 259 259 260 262 262 264 268 276 280 282 283
201 198 193 191 189 190 194 201 206 217 223 229 235 243 247 250 253 261 266 270 271 270 274 272 269 270 270 269 267 264 262 260 259 257 258 260 262 265 267 273 279 284 288
199 199 196 194 193 195 199 205 213 222 226 234 241 246 246 250 254 259 265 265 266 271 275 273 271 272 271 270 268 266 264 262 260 259 258 258 261 260 259 266 277 282 282
200 200 198 199 199 201 206 211 218 225 229 236 243 248 249 253 259 264 262 263 263 268 270 272 272 272 271 269 269 266 266 265 261 260 259 258 258 258 257 259 261 270 279
200 201 199 201 204 207 213 217 221 227 229 236 243 251 253 256 260 261 260 263 266 267 269 270 270 271 271 270 268 268 267 266 265 261 260 260 259 260 257 255 256 257 265
206 205 203 202 203 207 215 221 225 231 235 239 245 250 253 256 259 261 264 268 270 270 269 270 272 273 272 270 268 268 270 269 269 267 263 263 261 260 258 256 256 256 257
215 207 204 201 203 210 217 222 230 236 240 243 247 250 253 254 260 265 270 272 273 273 272 272 274 274 273 272 270 270 270 270 270 269 268 266 265 260 259 256 255 257 255
205 206 205 208 214 221 225 226 230 237 242 243 244 248 252 255 261 266 270 272 274 277 277 275 276 278 278 276 273 274 272 271 271 270 269 268 265 263 261 261 260 259 258
207 232 233 230 232 233 233 234 241 247 249 244 243 249 255 260 264 268 271 273 274 277 279 278 278 279 279 277 277 276 274 274 273 272 271 271 265 265 266 264 264 265 263
251 258 258 258 250 247 250 247 255 259 251 246 250 255 263 266 269 273 276 276 276 278 279 280 279 280 280 278 283 283 280 278 277 275 273 272 269 268 267 266 264 264 264
258 260 263 265 256 256 261 262 264 267 256 253 263 270 267 270 274 277 280 279 281 284 284 282 283 285 285 291 291 289 283 281 278 279 278 276 271 269 266 266 265 263 262
262 261 262 260 259 264 266 265 278 287 269 269 280 282 273 275 276 278 280 282 285 288 287 285 287 289 293 295 295 293 289 284 280 279 280 280 279 277 273 271 267 264 262
271 268 269 270 271 271 272 291 303 293 294 295 292 292 285 283 285 285 286 288 289 288 287 289 292 292 294 299 301 299 291 286 282 281 282 282 283 281 281 279 275 272 269
286 281 274 269 271 275 291 340 332 322 311 303 301 303 295 291 289 287 287 290 291 291 289 292 292 292 295 300 304 302 294 291 292 289 285 282 282 284 284 280 279 279 278
317 309 299 289 281 295 352 2 331 320 318 319 312 302 295 290 289 291 293 294 293 292 295 293 291 292 296 303 306 305 295 295 297 295 290 286 286 287 288 282 277 278 281
337 332 332 326 316 319 329 314 310 308 320 326 323 312 299 296 295 298 303 307 308 306 302 299 297 298 301 305 308 310 303 297 297 296 296 298 301 299 298 294 284 278 284
356 359 7 2 354 355 353 306 310 319 328 330 326 323 319 316 309 306 309 309 308 305 306 306 307 307 308 308 309 311 308 306 301 298 298 302 308 306 305 302 296 294 292
359 4 14 11 9 6 357 327 326 329 332 335 330 327 326 323 317 310 309 310 310 306 308 310 312 315 317 318 317 315 314 312 305 302 308 312 312 313 312 313 310 303 294
358 2 12 12 4 0 358 349 335 325 323 326 327 327 326 327 326 321 315 312 311 311 312 312 311 312 314 320 325 318 314 314 310 309 314 318 322 318 318 319 319 313 305
346 352 357 351 346 350 353 355 346 333 323 325 328 322 322 323 321 320 318 308 307 312 310 310 311 312 313 320 324 321 314 312 309 311 310 317 324 326 326 326 328 324 321
347 352 353 350 345 346 352 354 350 335 323 322 323 319 323 322 317 316 319 321 303 315 313 311 308 306 306 316 321 324 324 320 312 311 313 316 315 316 320 321 323 324 322